Location: DARK SKY Beskydy - Park tmavé oblohy, www.darkskybeskydy.cz
(49.4926°N, 18.5016°E)
Time: 17:42:53
(UTC+02:00)

PCSat - Pass Details

Date: 12 August 2024
Orbit: 781 x 793 km, 67.1° (Epoch: 08 September)

Event Time Altitude Azimuth Distance (km) Brightness Sun altitude
Rises 01:43:04 0° 324° (NW) 3,301 13.3 -24.6°
Reaches altitude 10° 01:45:30 10° 325° (NW) 2,368 12.5 -24.5°
Maximum altitude 01:50:57 87° 53° (NE) 800 9.5 -24.3°
Enters shadow 01:52:22 52° 141° (SE) 985 9.8 -24.2°
